EW6254 Weather Reports


Display with metric or nautical units.
time (UTC)temp
F
wind
direction
speed
MPH
gust
MPH
rain 1hr
in
rain 24hr
in
rain mn
in
humidity
%
barometer
mb
20210301034551 29 0 0.0 0.0 0.00 0.00 0.00 77 1022.9
20210301033608 29 0 0.0 1.0 0.00 0.00 0.00 77 1022.8
20210301032725 29 0 0.0 0.0 0.00 0.00 0.00 76 1022.7
20210301031609 29 0 0.0 0.0 0.00 0.00 0.00 76 1022.6
20210301030539 29 0 0.0 0.0 0.00 0.00 0.00 76 1022.4
20210301025548 29 0 0.0 0.0 0.00 0.00 0.00 76 1022.4
20210301024606 30 0 0.0 5.0 0.00 0.00 0.00 76 1022.3
20210301023625 30 0 2.0 6.0 0.00 0.00 0.00 76 1022.2
20210301022837 30 346 2.0 5.0 0.00 0.00 0.00 76 1022.1
20210301021613 30 0 1.0 4.0 0.00 0.00 0.00 75 1022.1
20210301020554 30 0 1.0 0.0 0.00 0.00 0.00 75 1022.0
20210301015523 31 0 3.0 6.0 0.00 0.00 0.00 75 1022.0
20210301014519 31 0 3.0 7.0 0.00 0.00 0.00 74 1022.0
20210301013515 31 0 3.0 7.0 0.00 0.00 0.00 74 1021.9
20210301012533 31 0 2.0 6.0 0.00 0.00 0.00 73 1021.8
20210301011516 32 310 2.0 7.0 0.00 0.00 0.00 73 1021.5
20210301010454 32 0 2.0 7.0 0.00 0.00 0.00 72 1021.2
20210301005520 32 305 2.0 6.0 0.00 0.00 0.00 72 1021.0
20210301004458 32 295 1.0 6.0 0.00 0.00 0.00 71 1020.8
20210301003434 33 302 2.0 7.0 0.00 0.00 0.00 71 1020.7
20210301002417 33 286 2.0 8.0 0.00 0.00 0.00 70 1020.6
20210301001359 33 0 2.0 9.0 0.00 0.00 0.00 69 1020.6
20210301000406 34 291 4.0 9.0 0.00 0.00 0.00 68 1020.5
20210228235444 34 0 3.0 8.0 0.00 0.00 0.00 67 1020.4
20210228234355 34 345 4.0 13.0 0.00 0.00 0.00 67 1020.4
20210228233343 34 0 4.0 18.0 0.00 0.00 0.00 69 1020.4
20210228232313 35 306 6.0 18.0 0.00 0.00 0.00 69 1020.3
20210228231257 35 0 5.0 16.0 0.00 0.00 0.00 70 1020.0
20210228230220 35 308 7.0 17.0 0.00 0.00 0.00 69 1020.0
20210228225307 35 284 6.0 17.0 0.00 0.00 0.00 68 1019.9
20210228224147 36 292 6.0 16.0 0.00 0.00 0.00 68 1019.7
20210228223120 36 0 4.0 10.0 0.00 0.00 0.00 68 1019.6
20210228222145 36 5 4.0 19.0 0.00 0.00 0.00 69 1019.6
20210228221137 35 296 6.0 19.0 0.00 0.00 0.00 70 1019.6
20210228220132 35 246 5.0 17.0 0.00 0.00 0.00 69 1019.7
20210228215321 35 355 5.0 14.0 0.00 0.00 0.00 70 1019.7
20210228214128 36 0 5.0 12.0 0.00 0.00 0.00 71 1019.5
20210228213135 35 0 4.0 14.0 0.00 0.00 0.00 72 1019.4
20210228212106 35 309 5.0 14.0 0.00 0.00 0.00 72 1019.4
20210228211053 34 255 4.0 14.0 0.00 0.00 0.00 73 1019.4
20210228210053 34 267 4.0 11.0 0.00 0.00 0.00 76 1019.3
20210228205309 32 303 6.0 15.0 0.00 0.00 0.00 78 1019.2
20210228204046 31 298 6.0 15.0 0.00 0.00 0.00 80 1019.0
20210228203052 31 289 4.0 15.0 0.00 0.00 0.00 81 1019.1
20210228202048 30 284 7.0 15.0 0.00 0.00 0.00 81 1019.0
20210228201025 30 283 5.0 14.0 0.00 0.00 0.00 81 1019.0
20210228200035 30 0 6.0 21.0 0.00 0.00 0.00 81 1018.8
20210228194950 30 0 8.0 21.0 0.00 0.00 0.00 82 1018.6
20210228193952 30 15 7.0 17.0 0.00 0.00 0.00 82 1018.6
20210228193036 30 304 4.0 13.0 0.00 0.00 0.00 82 1018.6
20210228191929 30 309 4.0 16.0 0.00 0.00 0.00 81 1018.5
20210228190910 30 11 6.0 16.0 0.00 0.00 0.00 82 1018.5
20210228185847 30 0 6.0 16.0 0.00 0.00 0.00 82 1018.4
20210228184903 31 0 6.0 17.0 0.00 0.00 0.00 82 1018.4
20210228183914 31 347 6.0 17.0 0.00 0.00 0.00 82 1018.4
20210228183043 30 249 6.0 21.0 0.00 0.00 0.00 83 1018.2
20210228181854 30 267 8.0 21.0 0.00 0.00 0.00 83 1018.2
20210228180855 30 36 6.0 18.0 0.00 0.00 0.00 83 1018.2
20210228175829 30 355 6.0 18.0 0.00 0.00 0.00 83 1018.0
20210228174754 31 0 5.0 15.0 0.00 0.00 0.00 83 1017.9
20210228173759 31 299 6.0 19.0 0.00 0.00 0.00 83 1017.7
20210228172905 32 275 6.0 19.0 0.00 0.00 0.00 83 1017.5
20210228171754 32 355 5.0 19.0 0.00 0.00 0.00 83 1017.3
20210228170804 32 288 6.0 16.0 0.00 0.00 0.00 83 1017.0
20210228165749 32 229 5.0 18.0 0.00 0.00 0.00 83 1016.5
20210228164755 32 309 7.0 18.0 0.00 0.00 0.00 83 1016.5
20210228163740 32 283 5.0 17.0 0.00 0.00 0.00 83 1016.1
20210228162949 32 347 6.0 14.0 0.00 0.00 0.00 83 1016.0
20210228161758 32 307 6.0 21.0 0.00 0.00 0.00 84 1015.7
20210228160726 31 350 6.0 21.0 0.00 0.00 0.00 85 1015.2
20210228155732 30 263 7.0 20.0 0.00 0.00 0.00 85 1015.4
20210228154757 30 309 6.0 15.0 0.00 0.00 0.00 85 1014.9
20210228153802 31 355 6.0 17.0 0.00 0.00 0.00 85 1014.9
20210228152953 32 337 7.0 21.0 0.00 0.00 0.00 85 1014.4
20210228151745 32 0 8.0 21.0 0.00 0.00 0.00 85 1014.3
20210228150748 33 0 7.0 20.0 0.00 0.00 0.00 84 1014.1
20210228145718 33 286 6.0 20.0 0.00 0.00 0.00 84 1013.4
20210228144729 34 350 8.0 20.0 0.00 0.00 0.00 83 1013.3
20210228143707 35 248 6.0 20.0 0.00 0.00 0.00 85 1012.8
20210228142927 35 261 6.0 17.0 0.00 0.00 0.00 84 1012.7
20210228141619 35 0 6.0 16.0 0.00 0.00 0.00 84 1012.4
20210228140610 35 355 6.0 16.0 0.00 0.00 0.00 84 1012.0
20210228135546 35 0 6.0 16.0 0.00 0.00 0.00 85 1011.8
20210228134545 35 0 6.0 16.0 0.00 0.00 0.00 85 1011.7
20210228133547 35 341 6.0 15.0 0.00 0.00 0.00 86 1011.4
20210228132742 35 26 6.0 20.0 0.00 0.00 0.00 86 1011.1
20210228131615 35 0 7.0 20.0 0.00 0.00 0.00 87 1010.8
20210228130608 35 266 7.0 19.0 0.00 0.00 0.00 88 1010.8
20210228125614 34 340 5.0 15.0 0.00 0.00 0.00 88 1010.9
20210228124536 34 273 5.0 14.0 0.00 0.00 0.00 89 1010.7
20210228123546 34 213 6.0 16.0 0.00 0.00 0.00 89 1010.5
20210228122917 34 5 6.0 18.0 0.00 0.00 0.00 89 1010.3
20210228121622 34 0 5.0 18.0 0.00 0.00 0.00 89 1010.2
20210228120607 34 24 5.0 17.0 0.00 0.00 0.00 89 1010.1
20210228115602 34 300 4.0 17.0 0.00 0.00 0.00 89 1009.8
20210228114523 34 295 4.0 17.0 0.00 0.00 0.00 89 1009.7
20210228113524 33 259 4.0 13.0 0.00 0.00 0.00 89 1009.5
20210228112535 33 0 4.0 14.0 0.00 0.00 0.00 89 1009.2
20210228111456 33 286 4.0 16.0 0.00 0.00 0.00 89 1009.2
20210228110422 33 276 4.0 16.0 0.00 0.00 0.00 88 1009.2
20210228105359 33 293 3.0 12.0 0.00 0.00 0.00 88 1008.8
20210228104350 33 9 4.0 12.0 0.00 0.00 0.00 88 1008.4
20210228103406 33 305 3.0 8.0 0.00 0.00 0.00 88 1008.1
20210228102510 34 294 3.0 7.0 0.00 0.00 0.00 87 1007.7
20210228101315 34 297 2.0 8.0 0.00 0.00 0.00 87 1007.5
20210228100310 34 178 3.0 8.0 0.00 0.00 0.00 87 1007.5
20210228095259 34 309 4.0 8.0 0.00 0.00 0.00 87 1007.3
20210228094238 34 263 3.0 9.0 0.00 0.00 0.00 87 1007.5
20210228093207 35 0 2.0 9.0 0.00 0.00 0.00 86 1007.7
20210228092134 35 283 2.0 7.0 0.00 0.00 0.00 86 1007.5
20210228091146 35 284 2.0 7.0 0.00 0.00 0.00 86 1007.3
20210228090153 36 271 1.0 6.0 0.00 0.00 0.00 86 1007.2
20210228085329 37 308 2.0 8.0 0.00 0.00 0.00 86 1007.0
20210228084211 37 294 3.0 8.0 0.00 0.00 0.00 86 1007.1
20210228083144 38 283 0.0 3.0 0.00 0.00 0.00 86 1007.0
20210228082119 39 300 0.0 2.0 0.00 0.00 0.00 86 1006.9
20210228081115 39 300 0.0 4.0 0.00 0.00 0.00 86 1006.9
20210228080143 40 310 2.0 7.0 0.00 0.00 0.00 86 1006.7
20210228075247 40 0 1.0 7.0 0.00 0.00 0.00 86 1006.7
20210228074144 40 299 1.0 3.0 0.00 0.00 0.00 86 1006.9
20210228073201 40 286 1.0 6.0 0.00 0.00 0.00 86 1006.7
20210228072157 41 292 0.0 3.0 0.00 0.00 0.00 85 1006.7
20210228071125 41 303 1.0 3.0 0.00 0.00 0.00 84 1006.5
20210228070129 41 291 1.0 7.0 0.00 0.00 0.00 83 1006.4
20210228065122 42 273 0.0 7.0 0.00 0.00 0.00 81 1006.3
20210228064138 43 115 0.0 0.0 0.00 0.00 0.00 82 1005.9
20210228063334 44 115 0.0 0.0 0.00 0.00 0.00 82 1005.7
20210228062155 44 115 0.0 0.0 0.00 0.00 0.00 82 1005.5
20210228061138 44 115 0.0 0.0 0.00 0.00 0.00 82 1005.6
20210228060124 44 114 0.0 0.0 0.00 0.00 0.00 83 1005.5
20210228055105 44 126 0.0 0.0 0.00 0.00 0.00 83 1005.4
20210228054102 44 111 0.0 0.0 0.00 0.00 0.00 83 1005.6
20210228053154 44 111 0.0 3.0 0.00 0.00 0.00 83 1005.5
20210228052043 44 121 0.0 0.0 0.00 0.00 0.00 83 1005.6
20210228051105 44 112 0.0 4.0 0.00 0.00 0.00 82 1005.5
20210228050113 44 110 0.0 0.0 0.00 0.00 0.00 82 1005.9
20210228045121 44 110 0.0 1.0 0.00 0.00 0.00 81 1006.2
20210228044049 44 110 0.0 0.0 0.00 0.00 0.00 81 1006.2
20210228043044 45 110 0.0 6.0 0.00 0.00 0.00 80 1006.3
20210228042104 45 110 6.0 9.0 0.00 0.00 0.00 80 1006.0
20210228041018 45 104 4.0 9.0 0.00 0.00 0.00 79 1006.0
20210228040033 45 92 4.0 9.0 0.00 0.00 0.00 79 1005.9